Location: Wapato
(46.4478°N, 120.4212°W)
Time: 04:40:20
(UTC+00:00)

Injun/Solrad 3 - Visible Passes

Search period start: 10 May 2026 00:00
Search period end: 20 May 2026 00:00
Orbit: 868 x 988 km, 66.8° (Epoch: 9 May)

Date Brightness Start Highest point End Pass type
(mag) Time Alt. Az. Time Alt. Az. Time Alt. Az.
10 May 10.7 04:32:21 10° NW 04:34:49 12° N 04:37:19 10° NNE visible
10 May 10.6 06:21:15 10° NNW 06:24:22 14° NNE 06:27:31 10° NE visible
10 May 9.4 08:07:11 10° NNW 08:12:58 34° NE 08:18:47 10° ESE visible
10 May 8.0 09:53:33 10° NW 09:59:52 61° WSW 10:03:43 25° S visible
10 May 9.8 11:44:06 10° W 11:45:06 10° W 11:46:06 10° WSW visible
11 May 10.7 04:44:34 10° NNW 04:46:34 11° N 04:48:35 10° NNE visible
11 May 10.5 06:32:12 10° NNW 06:36:02 16° NNE 06:39:54 10° ENE visible
11 May 8.9 08:18:07 10° NNW 08:24:15 45° NE 08:29:38 14° ESE visible
11 May 8.4 10:04:47 10° NW 10:10:46 42° WSW 10:13:11 30° SSW visible
12 May 10.7 04:56:25 10° NNW 04:58:20 11° N 05:00:16 10° NNE visible
12 May 10.2 06:43:05 10° NNW 06:47:37 20° NNE 06:52:10 10° ENE visible
12 May 8.4 08:29:05 10° NNW 08:35:27 62° NE 08:39:22 25° SE visible
12 May 8.8 10:16:11 10° NW 10:21:34 29° WSW 10:22:56 27° SW visible
13 May 10.6 05:07:48 10° NNW 05:10:06 12° N 05:12:23 10° NNE visible
13 May 9.9 06:53:59 10° NNW 06:59:07 25° NE 07:04:17 10° E visible
13 May 8.0 08:40:05 10° NNW 08:46:33 86° ENE 08:49:18 38° SE visible
13 May 9.3 10:27:55 10° WNW 10:32:18 19° WSW 10:32:52 19° WSW visible
14 May 10.5 05:18:55 10° NNW 05:21:50 13° NNE 05:24:46 10° NE visible
14 May 9.5 07:04:53 10° NNW 07:10:32 31° NE 07:15:47 12° E visible
14 May 7.9 08:51:10 10° NW 08:57:34 69° WSW 08:59:22 48° S visible
14 May 9.8 10:40:28 10° WNW 10:42:55 12° W 10:42:57 12° W visible
15 May 10.4 05:29:52 10° NNW 05:33:30 15° NNE 05:37:09 10° NE visible
15 May 9.0 07:15:48 10° NNW 07:21:51 41° NE 07:25:58 20° ESE visible
15 May 8.3 09:02:21 10° NW 09:08:29 48° WSW 09:09:33 44° SW visible
16 May 10.2 05:40:48 10° NNW 05:45:07 18° NNE 05:49:27 10° ENE visible
16 May 8.5 07:26:45 10° NNW 07:33:04 56° NE 07:36:14 30° ESE visible
16 May 8.7 09:13:42 10° NW 09:19:20 33° WSW 09:19:49 32° WSW visible
17 May 10.5 04:05:22 10° NNW 04:07:31 12° N 04:09:41 10° NNE visible
17 May 9.9 05:51:41 10° NNW 05:56:38 23° NNE 06:01:37 10° E visible
17 May 8.0 07:37:44 10° NNW 07:44:13 77° NE 07:46:34 42° SE visible
17 May 9.3 09:25:18 10° WNW 09:30:04 22° WSW 09:30:09 22° WSW visible
18 May 10.4 04:16:33 10° NNW 04:19:16 13° NNE 04:22:00 10° NE visible
18 May 9.5 06:02:35 10° NNW 06:08:05 29° NE 06:13:21 11° E visible
18 May 7.9 07:48:48 10° NW 07:55:15 77° WSW 07:56:57 51° SSE visible
18 May 9.7 09:37:27 10° WNW 09:40:33 14° W 09:40:33 14° W visible
19 May 10.3 04:27:33 10° NNW 04:30:57 15° NNE 04:34:23 10° NE visible
19 May 9.1 06:13:29 10° NNW 06:19:26 38° NE 06:23:48 17° ESE visible
19 May 8.2 07:59:57 10° NW 08:06:12 54° WSW 08:07:24 47° SSW visible
